Edgbaston, United Kingdom

4:39 PM GMT on January 21, 2017 (GMT +0000)
Birmingham

Weather History for EGBB - March, 2014

Change the Weather History Date:

Tuesday, March 18, 2014

  Actual Average Record
Temperature  
Mean Temperature 48 °F -  
Max Temperature 55 °F 51 °F 64 °F (2005)
Min Temperature 42 °F 37 °F 23 °F (2013)
Degree Days  
Heating Degree Days 16    
Moisture  
Dew Point 42 °F    
Average Humidity 78    
Maximum Humidity 93    
Minimum Humidity 62    
Precipitation  
Precipitation 0.00 in 0.07 in - ()
Sea Level Pressure  
Sea Level Pressure 29.97 in    
Wind  
Wind Speed 8 mph ()    
Max Wind Speed 20 mph    
Max Gust Speed 31 mph    
Visibility 6.2 miles    
Events Rain    
Averages and records for this station are not official NWS values.
T = Trace of Precipitation, MM = Missing Value Source: Averaged Metar Reports

Daily Weather History Graph

Daily Weather History Graph

Search for Another Location

Airport or City:

Trip Planner

Search our weather history database for the weather conditions in past years. The results will help you decide how hot, cold, wet, or windy it might be!

Date:

Astronomy

Mar. 18, 2014 Rise Set
Actual Time 6:14 AM GMT 6:16 PM GMT
Civil Twilight 5:40 AM GMT 6:50 PM GMT
Nautical Twilight 5:00 AM GMT 7:30 PM GMT
Astronomical Twilight 4:19 AM GMT 8:12 PM GMT
Moon 8:38 PM GMT (3/18) 6:40 AM GMT (3/18)
Length of Visible Light 13h 09m
Length of Day
12h 01m
Full, 97% of the Moon is Illuminated
Mar 18
Full
Mar 24
Last Quarter
Mar 30
New
Apr 7
First Quarter
Apr 15
Full

Hourly Weather History & Observations

Time (GMT) Temp. Windchill Dew Point Humidity Pressure Visibility Wind Dir Wind Speed Gust Speed Precip Events Conditions
12:20 AM 44.6 °F 42.2 °F 39.2 °F 81% 30.04 in 6.2 mi WSW 4.6 mph - N/A   Unknown
12:50 AM 42.8 °F 41.1 °F 39.2 °F 87% 30.04 in 6.2 mi Variable 3.5 mph - N/A   Unknown
1:20 AM 42.8 °F 40.1 °F 39.2 °F 87% 30.04 in 6.2 mi WSW 4.6 mph - N/A   Unknown
1:50 AM 42.8 °F 40.1 °F 39.2 °F 87% 30.04 in 6.2 mi WSW 4.6 mph - N/A   Unknown
2:20 AM 44.6 °F 41.4 °F 41.0 °F 87% 30.01 in 6.2 mi WSW 5.8 mph - N/A   Unknown
2:50 AM 44.6 °F 40.2 °F 41.0 °F 87% 30.01 in 6.2 mi West 8.1 mph - N/A   Mostly Cloudy
3:20 AM 44.6 °F 41.4 °F 41.0 °F 87% 30.01 in 6.2 mi SW 5.8 mph - N/A   Overcast
3:50 AM 44.6 °F 40.7 °F 41.0 °F 87% 29.98 in 6.2 mi SW 6.9 mph - N/A   Overcast
4:20 AM 44.6 °F 41.4 °F 41.0 °F 87% 29.98 in 6.2 mi SSW 5.8 mph - N/A   Mostly Cloudy
4:50 AM 44.6 °F 40.7 °F 41.0 °F 87% 29.98 in 6.2 mi SSW 6.9 mph - N/A   Mostly Cloudy
5:20 AM 44.6 °F 41.4 °F 41.0 °F 87% 29.98 in 6.2 mi SSW 5.8 mph - N/A   Mostly Cloudy
5:50 AM 44.6 °F 40.7 °F 41.0 °F 87% 29.95 in 6.2 mi SSW 6.9 mph - N/A   Mostly Cloudy
6:20 AM 44.6 °F 41.4 °F 41.0 °F 87% 29.95 in 6.2 mi SSW 5.8 mph - N/A   Mostly Cloudy
6:50 AM 46.4 °F 43.5 °F 41.0 °F 81% 29.95 in 6.2 mi SSW 5.8 mph - N/A   Mostly Cloudy
7:20 AM 46.4 °F 42.9 °F 41.0 °F 81% 29.95 in 6.2 mi SSW 6.9 mph - N/A   Scattered Clouds
7:50 AM 46.4 °F 42.4 °F 39.2 °F 76% 29.92 in 6.2 mi WSW 8.1 mph - N/A   Partly Cloudy
8:20 AM 48.2 °F - 41.0 °F 76% 29.92 in 6.2 mi SW 10.4 mph - N/A   Scattered Clouds
8:50 AM 48.2 °F - 41.0 °F 76% 29.92 in 6.2 mi SSW 10.4 mph 21.9 mph N/A   Scattered Clouds
9:20 AM 48.2 °F - 41.0 °F 76% 29.92 in 6.2 mi SW 10.4 mph - N/A   Mostly Cloudy
9:50 AM 50.0 °F - 42.8 °F 76% 29.92 in 6.2 mi SSW 10.4 mph - N/A   Mostly Cloudy
10:20 AM 48.2 °F - 42.8 °F 82% 29.89 in 6.2 mi SSW 10.4 mph - N/A Rain Light Rain
10:50 AM 48.2 °F - 42.8 °F 82% 29.89 in 6.2 mi SSW 9.2 mph - N/A   Mostly Cloudy
11:20 AM 48.2 °F - 46.4 °F 93% 29.89 in - SSW 10.4 mph - N/A   Drizzle
11:50 AM 50.0 °F - 46.4 °F 87% 29.89 in 6.2 mi SW 12.7 mph 24.2 mph N/A   Mostly Cloudy
12:20 PM 51.8 °F - 46.4 °F 82% 29.86 in 6.2 mi SW 9.2 mph - N/A   Mostly Cloudy
12:50 PM 53.6 °F - 44.6 °F 72% 29.86 in 6.2 mi West 15.0 mph 26.5 mph N/A   Mostly Cloudy
1:20 PM 53.6 °F - 42.8 °F 67% 29.89 in 6.2 mi West 18.4 mph 31.1 mph N/A   Mostly Cloudy
1:50 PM 53.6 °F - 42.8 °F 67% 29.89 in 6.2 mi West 13.8 mph - N/A   Scattered Clouds
2:20 PM 53.6 °F - 42.8 °F 67% 29.89 in 6.2 mi West 18.4 mph - N/A   Mostly Cloudy
2:50 PM 53.6 °F - 42.8 °F 67% 29.89 in 6.2 mi West 17.3 mph - N/A   Scattered Clouds
3:20 PM 53.6 °F - 41.0 °F 62% 29.89 in 6.2 mi WNW 19.6 mph 31.1 mph N/A   Mostly Cloudy
3:50 PM 55.4 °F - 42.8 °F 63% 29.89 in 6.2 mi West 16.1 mph - N/A   Scattered Clouds
4:20 PM 53.6 °F - 41.0 °F 62% 29.92 in 6.2 mi West 17.3 mph - N/A   Mostly Cloudy
4:50 PM 53.6 °F - 42.8 °F 67% 29.95 in 6.2 mi West 16.1 mph 28.8 mph N/A   Mostly Cloudy
5:20 PM 53.6 °F - 41.0 °F 62% 29.95 in 6.2 mi West 15.0 mph 28.8 mph N/A   Scattered Clouds
5:50 PM 51.8 °F - 41.0 °F 67% 29.98 in 6.2 mi West 13.8 mph - N/A   Scattered Clouds
6:20 PM 51.8 °F - 42.8 °F 71% 29.98 in 6.2 mi West 11.5 mph - N/A   Mostly Cloudy
6:50 PM 50.0 °F - 44.6 °F 82% 30.01 in 6.2 mi WNW 12.7 mph - N/A   Mostly Cloudy
7:20 PM 51.8 °F - 42.8 °F 71% 30.04 in 6.2 mi West 12.7 mph - N/A   Mostly Cloudy
7:50 PM 50.0 °F - 42.8 °F 76% 30.04 in 6.2 mi West 9.2 mph - N/A   Mostly Cloudy
8:20 PM 50.0 °F - 42.8 °F 76% 30.06 in 6.2 mi West 10.4 mph - N/A   Scattered Clouds
8:50 PM 50.0 °F - 42.8 °F 76% 30.06 in 6.2 mi West 9.2 mph - N/A   Partly Cloudy
9:20 PM 50.0 °F - 42.8 °F 76% 30.09 in 6.2 mi West 9.2 mph - N/A   Scattered Clouds
9:50 PM 48.2 °F - 41.0 °F 76% 30.09 in 6.2 mi WSW 8.1 mph - N/A   Partly Cloudy
10:20 PM 48.2 °F - 41.0 °F 76% 30.09 in - West 8.1 mph - N/A   Clear
10:50 PM 46.4 °F 42.4 °F 41.0 °F 81% 30.12 in - West 8.1 mph - N/A   Clear
11:20 PM 46.4 °F 43.5 °F 41.0 °F 81% 30.12 in - WSW 5.8 mph - N/A   Clear
11:50 PM 46.4 °F 42.4 °F 41.0 °F 81% 30.12 in - West 8.1 mph - N/A   Clear